Darstellungsparameter: Aktuell verwendete Einstellungen:
Skalierung der Graphiken ... ?
xyx+y,   Skalierungsfaktor:      Skalierung: Modus: x, Faktor: 1
Darstellungszeitraum ... ?
Vom - - bis: - -   Zeitraum: 25.02.2021 - 25.02.2021
Min/Max/Avg-Anzeige ... ?
Zeige MMA aktuell
Zeige MMA Monat
Zeige MMA alles
Zeige --A aktuell
Zeige --A Monat
Zeige --A alles
Keine MMA-Anzeige
MMA:
Keine MMA-Graphiken
MMA-Basis: 25.02.2021 - 25.02.2021
Quicknavigation für Darstellung... ?
Tage:      1T, 2T, 3T, 5T -1T -2T -3T -5T +1T +2T +3T +5T
Wochen: 1W, 2W, 3W -1W -2W -3W +1W +2W +3W
Monate: 1M, 3M, 6M -1M -3M -6M +1M +3M +6M
Jahre:    1J, 3J, 5J, 10J -1J -3J -5J -10J +1J +3J +5J +10J
Nutze für die Darstellung ... ?
Originaldaten oder Mittelwerte auf ...
Stundenbasis Tagesbasis Wochenbasis
Monatsbasis Jahresbasis      Datenbasis: Original-Daten
Darstellen als:
Statistik (Auto) Statistik J:M      Darstellung:

Der gewünschte Datumsbereich war nicht gültig/verfügbar und wurde korrigiert....
Das angegebene Enddatum (14.08.2021 23:59:59) liegt in der Zukunft.
Das angegebene Startdatum (14.08.2021 00:00:00) liegt in der Zukunft.


Zur Graphik,    zurück zur Übersicht aller Sensoren.
 
Tabellarische Datenbersicht: ?
 
Sensor: Nr:Datum:Temp:Feuchte:Taupunkt:
Aussen-T/F 1 25-02-2021 01:00:00 6.7 C 95 % 5.96 C
2 25-02-2021 01:05:00 6.7 C 95 % 5.96 C
3 25-02-2021 01:10:00 6.6 C 95 % 5.86 C
4 25-02-2021 01:15:00 6.5 C 95 % 5.76 C
5 25-02-2021 01:20:00 6.4 C 94 % 5.51 C
6 25-02-2021 01:25:00 6.2 C 94 % 5.31 C
7 25-02-2021 01:30:00 6.1 C 94 % 5.21 C
8 25-02-2021 01:35:00 6 C 94 % 5.11 C
9 25-02-2021 01:40:00 5.8 C 94 % 4.91 C
10 25-02-2021 01:45:00 5.7 C 94 % 4.81 C
11 25-02-2021 01:50:00 5.6 C 94 % 4.71 C
12 25-02-2021 01:55:00 5.6 C 94 % 4.71 C
13 25-02-2021 02:00:00 5.6 C 95 % 4.86 C
14 25-02-2021 02:05:00 5.7 C 95 % 4.96 C
15 25-02-2021 02:10:00 5.8 C 95 % 5.06 C
16 25-02-2021 02:15:00 5.8 C 95 % 5.06 C
17 25-02-2021 02:20:00 5.7 C 95 % 4.96 C
18 25-02-2021 02:25:00 5.6 C 95 % 4.86 C
19 25-02-2021 02:30:00 5.6 C 95 % 4.86 C
20 25-02-2021 02:35:00 5.6 C 95 % 4.86 C
21 25-02-2021 02:40:00 5.6 C 95 % 4.86 C
22 25-02-2021 02:45:00 5.5 C 95 % 4.76 C
23 25-02-2021 02:50:00 5.5 C 95 % 4.76 C
24 25-02-2021 02:55:00 5.4 C 95 % 4.66 C
25 25-02-2021 03:00:00 5.4 C 95 % 4.66 C
Sensor: Nr:Datum:Temp:Feuchte:Taupunkt:
Aussen-T/F 26 25-02-2021 03:05:00 5.4 C 95 % 4.66 C
27 25-02-2021 03:10:00 5.3 C 95 % 4.57 C
28 25-02-2021 03:15:00 5.2 C 95 % 4.47 C
29 25-02-2021 03:20:00 5.3 C 95 % 4.57 C
30 25-02-2021 03:25:00 5.3 C 95 % 4.57 C
31 25-02-2021 03:30:00 5.3 C 95 % 4.57 C
32 25-02-2021 03:35:00 5.2 C 95 % 4.47 C
33 25-02-2021 03:40:00 5.1 C 95 % 4.37 C
34 25-02-2021 03:45:00 5 C 95 % 4.27 C
35 25-02-2021 03:50:00 4.9 C 95 % 4.17 C
36 25-02-2021 03:55:00 4.9 C 95 % 4.17 C
37 25-02-2021 04:00:00 4.8 C 95 % 4.07 C
38 25-02-2021 04:05:00 4.7 C 95 % 3.97 C
39 25-02-2021 04:10:00 4.6 C 95 % 3.87 C
40 25-02-2021 04:15:00 4.5 C 95 % 3.77 C
41 25-02-2021 04:20:00 4.5 C 95 % 3.77 C
42 25-02-2021 04:25:00 4.4 C 95 % 3.67 C
43 25-02-2021 04:30:00 4.5 C 95 % 3.77 C
44 25-02-2021 04:35:00 4.4 C 95 % 3.67 C
45 25-02-2021 04:40:00 4.3 C 95 % 3.57 C
46 25-02-2021 04:45:00 4.3 C 95 % 3.57 C
47 25-02-2021 04:50:00 4.3 C 95 % 3.57 C
48 25-02-2021 04:55:00 4.4 C 95 % 3.67 C
49 25-02-2021 05:00:00 4.4 C 95 % 3.67 C
50 25-02-2021 05:05:00 4.4 C 96 % 3.82 C
Sensor: Nr:Datum:Temp:Feuchte:Taupunkt:
Aussen-T/F 51 25-02-2021 05:10:00 4.4 C 96 % 3.82 C
52 25-02-2021 05:15:00 4.4 C 96 % 3.82 C
53 25-02-2021 05:20:00 4.3 C 95 % 3.57 C
54 25-02-2021 05:25:00 4.3 C 96 % 3.72 C
55 25-02-2021 05:30:00 4.2 C 96 % 3.62 C
56 25-02-2021 05:35:00 4.2 C 96 % 3.62 C
57 25-02-2021 05:40:00 4.1 C 95 % 3.37 C
58 25-02-2021 05:45:00 3.9 C 95 % 3.17 C
59 25-02-2021 05:50:00 3.8 C 95 % 3.07 C
60 25-02-2021 05:55:00 3.7 C 95 % 2.98 C
61 25-02-2021 06:00:00 3.7 C 95 % 2.98 C
62 25-02-2021 06:05:00 3.7 C 96 % 3.12 C
63 25-02-2021 06:10:00 3.7 C 96 % 3.12 C
64 25-02-2021 06:15:00 3.7 C 96 % 3.12 C
65 25-02-2021 06:20:00 3.8 C 96 % 3.22 C
66 25-02-2021 06:25:00 3.9 C 96 % 3.32 C
67 25-02-2021 06:30:00 3.9 C 96 % 3.32 C
68 25-02-2021 06:35:00 3.9 C 96 % 3.32 C
69 25-02-2021 06:40:00 3.8 C 96 % 3.22 C
70 25-02-2021 06:45:00 3.7 C 96 % 3.12 C
71 25-02-2021 06:50:00 3.7 C 96 % 3.12 C
72 25-02-2021 06:55:00 3.7 C 96 % 3.12 C
73 25-02-2021 07:00:00 3.7 C 96 % 3.12 C
74 25-02-2021 07:05:00 3.5 C 96 % 2.92 C
75 25-02-2021 07:10:00 3.4 C 96 % 2.82 C
Sensor: Nr:Datum:Temp:Feuchte:Taupunkt:
Aussen-T/F 76 25-02-2021 07:15:00 3.3 C 96 % 2.72 C
77 25-02-2021 07:20:00 3.3 C 96 % 2.72 C
78 25-02-2021 07:25:00 3.3 C 96 % 2.72 C
79 25-02-2021 07:30:00 3.3 C 96 % 2.72 C
80 25-02-2021 07:35:00 3.2 C 96 % 2.63 C
81 25-02-2021 07:40:00 3.2 C 96 % 2.63 C
82 25-02-2021 07:45:00 3.2 C 96 % 2.63 C
83 25-02-2021 07:50:00 3.3 C 96 % 2.72 C
84 25-02-2021 07:55:00 3.3 C 96 % 2.72 C
85 25-02-2021 08:00:00 3.4 C 96 % 2.82 C
86 25-02-2021 08:05:00 3.5 C 96 % 2.92 C
87 25-02-2021 08:10:00 3.5 C 96 % 2.92 C
88 25-02-2021 08:15:00 3.6 C 96 % 3.02 C
89 25-02-2021 08:20:00 3.7 C 96 % 3.12 C
90 25-02-2021 08:25:00 3.8 C 97 % 3.37 C
91 25-02-2021 08:30:00 3.9 C 96 % 3.32 C
92 25-02-2021 08:35:00 3.9 C 96 % 3.32 C
93 25-02-2021 08:40:00 3.9 C 96 % 3.32 C
94 25-02-2021 08:45:00 3.9 C 96 % 3.32 C
95 25-02-2021 08:50:00 3.9 C 96 % 3.32 C
96 25-02-2021 08:55:00 3.9 C 96 % 3.32 C
97 25-02-2021 09:00:00 3.9 C 96 % 3.32 C
98 25-02-2021 09:05:00 3.9 C 96 % 3.32 C
99 25-02-2021 09:10:00 4 C 96 % 3.42 C
100 25-02-2021 09:15:00 4.1 C 97 % 3.67 C
Sensor: Nr:Datum:Temp:Feuchte:Taupunkt:
Aussen-T/F 101 25-02-2021 09:20:00 4.2 C 97 % 3.77 C
102 25-02-2021 09:25:00 4.4 C 97 % 3.97 C
103 25-02-2021 09:30:00 4.6 C 97 % 4.17 C
104 25-02-2021 09:35:00 4.8 C 97 % 4.37 C
105 25-02-2021 09:40:00 5 C 97 % 4.56 C
106 25-02-2021 09:45:00 5.2 C 97 % 4.76 C
107 25-02-2021 09:50:00 5.3 C 97 % 4.86 C
108 25-02-2021 09:55:00 5.4 C 97 % 4.96 C
109 25-02-2021 10:00:00 5.5 C 97 % 5.06 C
110 25-02-2021 10:05:00 5.6 C 97 % 5.16 C
111 25-02-2021 10:10:00 5.7 C 97 % 5.26 C
112 25-02-2021 10:15:00 5.9 C 97 % 5.46 C
113 25-02-2021 10:20:00 6 C 97 % 5.56 C
114 25-02-2021 10:25:00 6.2 C 97 % 5.76 C
115 25-02-2021 10:30:00 6.3 C 97 % 5.86 C
116 25-02-2021 10:35:00 6.5 C 97 % 6.06 C
117 25-02-2021 10:40:00 6.8 C 97 % 6.36 C
118 25-02-2021 10:45:00 7.2 C 97 % 6.76 C
119 25-02-2021 10:50:00 7.4 C 97 % 6.96 C
120 25-02-2021 10:55:00 7.7 C 98 % 7.4 C
121 25-02-2021 11:00:00 7.9 C 98 % 7.6 C
122 25-02-2021 11:05:00 8.2 C 97 % 7.75 C
123 25-02-2021 11:10:00 8.4 C 97 % 7.95 C
124 25-02-2021 11:15:00 8.7 C 98 % 8.4 C
125 25-02-2021 11:20:00 8.9 C 98 % 8.6 C
Sensor: Nr:Datum:Temp:Feuchte:Taupunkt:
Aussen-T/F 126 25-02-2021 11:25:00 9.2 C 97 % 8.75 C
127 25-02-2021 11:30:00 9.4 C 97 % 8.95 C
128 25-02-2021 11:35:00 9.7 C 98 % 9.4 C
129 25-02-2021 11:40:00 9.8 C 97 % 9.35 C
130 25-02-2021 11:45:00 10 C 97 % 9.55 C
131 25-02-2021 11:50:00 10.3 C 95 % 9.54 C
132 25-02-2021 11:55:00 10.6 C 93 % 9.52 C
133 25-02-2021 12:00:00 11 C 89 % 9.26 C
134 25-02-2021 12:05:00 11.6 C 87 % 9.51 C
135 25-02-2021 12:10:00 12.1 C 83 % 9.3 C
136 25-02-2021 12:15:00 12.7 C 80 % 9.34 C
137 25-02-2021 12:20:00 13.3 C 78 % 9.55 C
138 25-02-2021 12:25:00 13.7 C 75 % 9.35 C
139 25-02-2021 12:30:00 14.2 C 70 % 8.81 C
140 25-02-2021 12:35:00 14.7 C 69 % 9.08 C
141 25-02-2021 12:40:00 15.2 C 68 % 9.34 C
142 25-02-2021 12:45:00 15.7 C 67 % 9.6 C
143 25-02-2021 12:50:00 16.1 C 63 % 9.06 C
144 25-02-2021 12:55:00 16.4 C 61 % 8.87 C
145 25-02-2021 13:00:00 16.6 C 64 % 9.77 C
146 25-02-2021 13:05:00 16.8 C 63 % 9.72 C
147 25-02-2021 13:10:00 16.9 C 59 % 8.84 C
148 25-02-2021 13:15:00 17.2 C 60 % 9.37 C
149 25-02-2021 13:20:00 17.3 C 60 % 9.47 C
150 25-02-2021 13:25:00 17.5 C 57 % 8.9 C
Sensor: Nr:Datum:Temp:Feuchte:Taupunkt:
Aussen-T/F 151 25-02-2021 13:30:00 17.7 C 58 % 9.34 C
152 25-02-2021 13:35:00 17.8 C 58 % 9.43 C
153 25-02-2021 13:40:00 18.1 C 58 % 9.71 C
154 25-02-2021 13:45:00 18.3 C 56 % 9.38 C
155 25-02-2021 13:50:00 18.6 C 58 % 10.18 C
156 25-02-2021 13:55:00 18.9 C 58 % 10.46 C
157 25-02-2021 14:00:00 19.3 C 56 % 10.31 C
158 25-02-2021 14:05:00 19.6 C 56 % 10.59 C
159 25-02-2021 14:10:00 19.8 C 55 % 10.51 C
160 25-02-2021 14:15:00 20 C 52 % 9.85 C
161 25-02-2021 14:20:00 20.1 C 52 % 9.94 C
162 25-02-2021 14:25:00 20.2 C 50 % 9.45 C
163 25-02-2021 14:30:00 20.3 C 50 % 9.54 C
164 25-02-2021 14:35:00 20.3 C 49 % 9.24 C
165 25-02-2021 14:40:00 20.1 C 48 % 8.76 C
166 25-02-2021 14:45:00 20 C 51 % 9.56 C
167 25-02-2021 14:50:00 19.8 C 49 % 8.79 C
168 25-02-2021 14:55:00 19.7 C 51 % 9.29 C
169 25-02-2021 15:00:00 19.5 C 52 % 9.39 C
170 25-02-2021 15:05:00 19.3 C 53 % 9.49 C
171 25-02-2021 15:10:00 19.2 C 53 % 9.4 C
172 25-02-2021 15:15:00 19.1 C 52 % 9.02 C
173 25-02-2021 15:20:00 19 C 53 % 9.21 C
174 25-02-2021 15:25:00 18.9 C 53 % 9.12 C
175 25-02-2021 15:30:00 18.8 C 52 % 8.75 C
Sensor: Nr:Datum:Temp:Feuchte:Taupunkt:
Aussen-T/F 176 25-02-2021 15:35:00 18.8 C 53 % 9.03 C
177 25-02-2021 15:40:00 18.8 C 52 % 8.75 C
178 25-02-2021 15:45:00 18.8 C 53 % 9.03 C
179 25-02-2021 15:50:00 18.8 C 52 % 8.75 C
180 25-02-2021 15:55:00 18.7 C 51 % 8.37 C
181 25-02-2021 16:00:00 18.8 C 51 % 8.46 C
182 25-02-2021 16:05:00 18.8 C 52 % 8.75 C
183 25-02-2021 16:10:00 18.8 C 52 % 8.75 C
184 25-02-2021 16:15:00 18.8 C 50 % 8.17 C
185 25-02-2021 16:20:00 18.8 C 50 % 8.17 C
186 25-02-2021 16:25:00 18.7 C 51 % 8.37 C
187 25-02-2021 16:30:00 18.7 C 49 % 7.78 C
188 25-02-2021 16:35:00 18.6 C 51 % 8.27 C
189 25-02-2021 16:40:00 18.4 C 51 % 8.09 C
190 25-02-2021 16:45:00 18.2 C 50 % 7.62 C
191 25-02-2021 16:50:00 17.9 C 51 % 7.63 C
192 25-02-2021 16:55:00 17.7 C 52 % 7.73 C
193 25-02-2021 17:00:00 17.4 C 49 % 6.59 C
194 25-02-2021 17:05:00 17.2 C 54 % 7.82 C
195 25-02-2021 17:10:00 16.8 C 56 % 7.98 C
196 25-02-2021 17:15:00 16.4 C 57 % 7.87 C
197 25-02-2021 17:20:00 16.1 C 57 % 7.59 C
198 25-02-2021 17:25:00 15.7 C 59 % 7.72 C
199 25-02-2021 17:30:00 15.4 C 59 % 7.44 C
200 25-02-2021 17:35:00 15.2 C 60 % 7.5 C
Sensor: Nr:Datum:Temp:Feuchte:Taupunkt:
Aussen-T/F 201 25-02-2021 17:40:00 14.9 C 61 % 7.45 C
202 25-02-2021 17:45:00 14.6 C 62 % 7.41 C
203 25-02-2021 17:50:00 14.4 C 62 % 7.22 C
204 25-02-2021 17:55:00 14.2 C 63 % 7.27 C
205 25-02-2021 18:00:00 13.9 C 64 % 7.21 C
206 25-02-2021 18:05:00 13.7 C 64 % 7.02 C
207 25-02-2021 18:10:00 13.6 C 65 % 7.15 C
208 25-02-2021 18:15:00 13.3 C 66 % 7.09 C
209 25-02-2021 18:20:00 13.1 C 66 % 6.9 C
210 25-02-2021 18:25:00 12.9 C 66 % 6.71 C
211 25-02-2021 18:30:00 12.7 C 67 % 6.74 C
212 25-02-2021 18:35:00 12.6 C 67 % 6.64 C
213 25-02-2021 18:40:00 12.4 C 68 % 6.67 C
214 25-02-2021 18:45:00 12.3 C 68 % 6.57 C
215 25-02-2021 18:50:00 12.2 C 68 % 6.48 C
216 25-02-2021 18:55:00 12.1 C 68 % 6.38 C
217 25-02-2021 19:00:00 12 C 68 % 6.29 C
218 25-02-2021 19:05:00 11.9 C 69 % 6.4 C
219 25-02-2021 19:10:00 11.8 C 69 % 6.31 C
220 25-02-2021 19:15:00 11.7 C 69 % 6.21 C
221 25-02-2021 19:20:00 11.7 C 69 % 6.21 C
222 25-02-2021 19:25:00 11.7 C 70 % 6.42 C
223 25-02-2021 19:30:00 11.7 C 70 % 6.42 C
224 25-02-2021 19:35:00 11.7 C 70 % 6.42 C
225 25-02-2021 19:40:00 11.7 C 71 % 6.62 C
Sensor: Nr:Datum:Temp:Feuchte:Taupunkt:
Aussen-T/F 226 25-02-2021 19:45:00 11.6 C 71 % 6.53 C
227 25-02-2021 19:50:00 11.4 C 71 % 6.34 C
228 25-02-2021 19:55:00 11.3 C 72 % 6.44 C
229 25-02-2021 20:00:00 11.2 C 73 % 6.55 C
230 25-02-2021 20:05:00 11.1 C 74 % 6.65 C
231 25-02-2021 20:10:00 10.9 C 74 % 6.45 C
232 25-02-2021 20:15:00 10.8 C 74 % 6.36 C
233 25-02-2021 20:20:00 10.8 C 75 % 6.55 C
234 25-02-2021 20:25:00 10.8 C 74 % 6.36 C
235 25-02-2021 20:30:00 10.8 C 75 % 6.55 C
236 25-02-2021 20:35:00 10.8 C 75 % 6.55 C
237 25-02-2021 20:40:00 10.7 C 75 % 6.46 C
238 25-02-2021 20:45:00 10.6 C 76 % 6.55 C
239 25-02-2021 20:50:00 10.5 C 74 % 6.07 C
240 25-02-2021 20:55:00 10.4 C 75 % 6.17 C
241 25-02-2021 21:00:00 10.3 C 76 % 6.26 C
242 25-02-2021 21:05:00 10.3 C 76 % 6.26 C
243 25-02-2021 21:10:00 10.2 C 76 % 6.16 C
244 25-02-2021 21:15:00 10.2 C 76 % 6.16 C
245 25-02-2021 21:20:00 10.2 C 76 % 6.16 C
246 25-02-2021 21:25:00 10.1 C 76 % 6.07 C
247 25-02-2021 21:30:00 10.1 C 76 % 6.07 C
248 25-02-2021 21:35:00 10 C 76 % 5.97 C
249 25-02-2021 21:40:00 9.9 C 76 % 5.87 C
250 25-02-2021 21:45:00 9.8 C 76 % 5.78 C
Sensor: Nr:Datum:Temp:Feuchte:Taupunkt:
Aussen-T/F 251 25-02-2021 21:50:00 9.7 C 76 % 5.68 C
252 25-02-2021 21:55:00 9.6 C 76 % 5.58 C
253 25-02-2021 22:00:00 9.5 C 76 % 5.49 C
254 25-02-2021 22:05:00 9.4 C 77 % 5.58 C
255 25-02-2021 22:10:00 9.3 C 77 % 5.48 C
256 25-02-2021 22:15:00 9.2 C 77 % 5.38 C
257 25-02-2021 22:20:00 9.1 C 77 % 5.29 C
258 25-02-2021 22:25:00 8.8 C 78 % 5.18 C
259 25-02-2021 22:30:00 8.6 C 78 % 4.99 C
260 25-02-2021 22:35:00 8.4 C 80 % 5.16 C
261 25-02-2021 22:40:00 8.3 C 81 % 5.24 C
262 25-02-2021 22:45:00 8.2 C 81 % 5.14 C

Legende:
   Min
   Max


Maximal/Minimal-Werte vom 25.02.2021 - 25.02.2021

Sensor Min Max Avg
Temp
(Aussen-T/F)
3.2 °C
25-02-2021  07:35:00
20.3 °C
25-02-2021  14:30:00
9.81 °C
Feuchte
(Aussen-T/F)
48 %
25-02-2021  14:40:00
98 %
25-02-2021  10:55:00
80.24 %
Taupunkt
(Aussen-T/F)
2.63 C
25-02-2021  07:35:00
10.59 C
25-02-2021  14:05:00
6.07 C

Die Daten stammen von einer Davis Vantage Pro 2 Wetter-Station und werden unter Linux mit der Software wview2wettercgi und aufbereitet. Alle Angaben erfolgen ohne Gewähr für ihre Vollständigkeit oder Richtigkeit.
Kontakt: Rainer Krienke krienke@uni-koblenz.de . Meine Webseiten an der Uni Koblenz oder privat.
Version: $Revision: 0.78 $